Home   Weather   Ettelbruck   Past weeks

Flag for Luxembourg Past Weather in Ettelbruck, Luxembourg — Yesterday and Last 2 Weeks

Now
42 °F

Clear.


Feels Like: 40 °F
Forecast: 46 / 54 °F
Wind: 3 mph from East

Location: Luxembourg / Luxembourg

Current Time: Apr 30, 2017 at 3:42:14 am

Latest Report: Apr 30, 2017 at 2:00 am


Visibility: 22 mi

Pressure: 29.98 "Hg

Humidity: 66%

Dew Point: 31 °F

Location of EttelbruckLocation

Past Weather in Ettelbruck — Graph

°F

Ettelbruck Temperature Yesterday

Maximum temperature yesterday: 57 °F (at 5:00 pm)
Minimum temperature yesterday: 36 °F (at 7:00 am)
Average temperature yesterday: 47 °F

High & Low Weather Summary for the Past Weeks

 TemperatureHumidityPressure
High60 °F (Apr 24, 5:00 pm)97% (Apr 29, 5:00 am)30.64 "Hg (Apr 29, 5:00 am)
Low31 °F (Apr 28, 7:00 am)30% (Apr 20, 4:00 pm)29.78 "Hg (Apr 25, 7:00 am)
Average44 °F63%30.17 "Hg
* Reported Apr 15 2:00 am — Apr 30 2:00 am, Ettelbruck, Weather by CustomWeather, © 2017

Note: Actual official high and low records may vary slightly from our data, if they occured in-between our weather recording intervals... More about our weather records

Advertising

Ettelbruck Weather History for the Previous 24 Hours

Scroll right to see more
 ConditionsComfort  
Time TempWeatherWind HumidityBarometerVisibility
2:00 am
Sun, Apr 30
42 °FClear.3 mph66%29.98 "Hg22 mi
1:00 am46 °FClear.5 mph58%29.97 "Hg19 mi
12:00 am48 °FClear.6 mph54%29.98 "Hg19 mi
11:00 pm
Sat, Apr 29
49 °FClear.5 mph51%29.98 "Hg19 mi
10:00 pm50 °FPassing clouds.2 mph49%29.98 "Hg19 mi
9:00 pm52 °FClear.2 mph47%29.98 "Hg28 mi
8:00 pm55 °FPassing clouds.2 mph38%29.97 "Hg22 mi
7:00 pm56 °FPassing clouds.3 mph33%29.97 "Hg31 mi
6:00 pm57 °FPassing clouds.N/A34%29.99 "Hg22 mi
5:00 pm57 °FPassing clouds.3 mph34%30.00 "Hg22 mi
4:00 pm56 °FPassing clouds.3 mph35%30.01 "Hg22 mi
3:00 pm55 °FPassing clouds.N/A38%30.03 "Hg19 mi
2:00 pm54 °FPassing clouds.N/A42%30.05 "Hg25 mi
1:00 pm52 °FScattered clouds.3 mph46%30.06 "Hg22 mi
12:00 pm49 °FScattered clouds.2 mph47%30.08 "Hg22 mi
11:00 am47 °FScattered clouds.2 mph55%30.09 "Hg22 mi
10:00 am43 °FPartly sunny.2 mph74%30.10 "Hg11 mi
9:00 am41 °FPartly sunny.2 mph84%30.10 "Hg5 mi
8:00 am39 °FOvercast.1 mph92%30.09 "Hg4 mi
7:00 am36 °FOvercast.2 mph93%30.10 "Hg4 mi
6:00 am37 °FPassing clouds.1 mph93%30.09 "Hg4 mi
5:00 am37 °FPassing clouds.3 mph97%30.09 "Hg4 mi
4:00 am38 °FFog.1 mph96%30.08 "Hg3 mi
3:00 am38 °FClear.3 mph95%30.09 "Hg6 mi
Weather by CustomWeather, © 2017

See weather overviewHow to use our weather pages